Weather History for Glasgow, MT

Change the Weather History Date:

Wednesday, September 11, 2013

  Actual Average Record
Temperature  
Mean Temperature 67 °F 60 °F  
Max Temperature 81 °F 74 °F 95 °F (1919)
Min Temperature 52 °F 47 °F 26 °F (1989)
Degree Days  
Heating Degree Days 0 6  
Month to date heating degree days 1 52  
Since 1 July heating degree days 16 105  
Cooling Degree Days 2 2  
Month to date cooling degree days 74 26  
Year to date cooling degree days 551 521  
Growing Degree Days 18 (Base 50)    
Moisture  
Dew Point 45 °F    
Average Humidity 54    
Maximum Humidity 83    
Minimum Humidity 25    
Precipitation  
Precipitation 0.00 in 0.03 in 1.63 in (1978)
Month to date precipitation 1.53 0.35  
Year to date precipitation 14.12 9.52  
Snow  
Snow 0.00 in 0.00 in 0.00 in (2002)
Month to date snowfall 0.0 0.0  
Since 1 July snowfall 0.0 0.0  
Since 1 September snowfall 0.0 0.0  
Snow Depth 0.00 in    
Sea Level Pressure  
Sea Level Pressure 30.20 in    
Wind  
Wind Speed 7 mph (NNE)    
Max Wind Speed 15 mph    
Max Gust Speed 20 mph    
Visibility 10 miles    
Events      
T = Trace of Precipitation, MM = Missing Value Source: NWS Daily Summary

Daily Weather History Graph

Daily Weather History Graph

Search for Another Location

Airport:

Trip Planner

Search our weather history database for the weather conditions in past years. The results will help you decide how hot, cold, wet, or windy it might be!

Date:

Astronomy

Sep. 11, 2013 Rise Set
Actual Time 6:38 AM MDT 7:26 PM MDT
Civil Twilight 6:06 AM MDT 7:58 PM MDT
Nautical Twilight 5:29 AM MDT 8:35 PM MDT
Astronomical Twilight 4:49 AM MDT 9:15 PM MDT
Moon 1:39 PM MDT (9/11) 10:54 PM MDT (9/11)
Length of Visible Light 13h 51m
Length of Day
12h 48m
Waxing Crescent, 39% of the Moon is Illuminated
Sep 11
Waxing Crescent
Sep 12
First Quarter
Sep 19
Full
Sep 26
Last Quarter
Oct 4
New

Hourly Weather History & Observations

Time (MDT) Temp. Dew Point Humidity Pressure Visibility Wind Dir Wind Speed Gust Speed Precip Events Conditions
12:53 AM 62.1 °F 48.9 °F 62% 30.08 in 10.0 mi Calm Calm - N/A   Clear
1:53 AM 61.0 °F 50.0 °F 67% 30.09 in 10.0 mi Calm Calm - N/A   Scattered Clouds
2:53 AM 57.0 °F 51.1 °F 81% 30.10 in 10.0 mi North 3.5 mph - N/A   Clear
3:53 AM 57.0 °F 50.0 °F 77% 30.10 in 10.0 mi North 3.5 mph - N/A   Clear
4:53 AM 55.9 °F 48.0 °F 75% 30.12 in 10.0 mi SE 3.5 mph - N/A   Clear
5:53 AM 57.0 °F 46.9 °F 69% 30.13 in 10.0 mi SE 3.5 mph - N/A   Clear
6:53 AM 54.0 °F 48.9 °F 83% 30.15 in 10.0 mi North 4.6 mph - N/A   Partly Cloudy
7:53 AM 57.9 °F 48.9 °F 72% 30.17 in 10.0 mi NNE 5.8 mph - N/A   Clear
8:53 AM 64.9 °F 48.0 °F 54% 30.19 in 10.0 mi NW 4.6 mph - N/A   Clear
9:53 AM 70.0 °F 54.0 °F 57% 30.20 in 10.0 mi NW 5.8 mph - N/A   Clear
10:53 AM 75.0 °F 48.9 °F 40% 30.21 in 10.0 mi West 6.9 mph - N/A   Clear
11:53 AM 79.0 °F 43.0 °F 28% 30.21 in 10.0 mi NNE 9.2 mph - N/A   Clear
12:53 PM 79.0 °F 42.1 °F 27% 30.21 in 10.0 mi North 6.9 mph - N/A   Clear
1:53 PM 79.0 °F 42.1 °F 27% 30.21 in 10.0 mi North 5.8 mph - N/A   Clear
2:53 PM 80.1 °F 41.0 °F 25% 30.22 in 10.0 mi NNW 13.8 mph 19.6 mph N/A   Clear
3:53 PM 81.0 °F 41.0 °F 24% 30.21 in 10.0 mi North 9.2 mph - N/A   Clear
4:53 PM 79.0 °F 39.0 °F 24% 30.21 in 10.0 mi North 10.4 mph - N/A   Clear
5:53 PM 78.1 °F 39.0 °F 25% 30.22 in 10.0 mi North 10.4 mph - N/A   Clear
6:53 PM 73.0 °F 41.0 °F 31% 30.23 in 10.0 mi North 6.9 mph - N/A   Clear
7:53 PM 63.0 °F 45.0 °F 52% 30.26 in 10.0 mi NE 8.1 mph - N/A   Clear
8:53 PM 59.0 °F 46.0 °F 62% 30.27 in 10.0 mi NE 11.5 mph - N/A   Clear
9:53 PM 57.9 °F 45.0 °F 62% 30.28 in 10.0 mi NE 11.5 mph - N/A   Clear
10:53 PM 59.0 °F 43.0 °F 55% 30.28 in 10.0 mi ENE 10.4 mph - N/A   Clear
11:53 PM 57.0 °F 43.0 °F 59% 30.30 in 10.0 mi ENE 10.4 mph - N/A   Clear